N7LK Weather Reports


time (UTC)temp
C
wind
direction
speed
KPH
gust
KPH
rain 1hr
cm
rain 24hr
cm
rain mn
cm
humidity
%
barometer
mb
20260507140329 20 163 0.0 0.0 0.00 0.00 0.00 38 1012.0
20260507135401 19 161 0.0 0.0 0.00 0.00 0.00 41 1011.8
20260507134327 18 161 0.0 0.0 0.00 0.00 0.00 43 1011.8
20260507133335 17 162 0.0 0.0 0.00 0.00 0.00 44 1011.8
20260507132342 16 168 0.0 0.0 0.00 0.00 0.00 48 1011.8
20260507131335 16 167 0.0 0.0 0.00 0.00 0.00 47 1011.7
20260507130342 16 165 0.0 0.0 0.00 0.00 0.00 46 1011.6
20260507125329 16 165 0.0 0.0 0.00 0.00 0.00 44 1011.5
20260507124338 16 165 0.0 0.0 0.00 0.00 0.00 44 1011.6
20260507123330 16 165 0.0 0.0 0.00 0.00 0.00 42 1011.4
20260507122338 16 179 0.0 0.0 0.00 0.00 0.00 46 1011.4
20260507121326 16 292 0.0 0.0 0.00 0.00 0.00 45 1011.3
20260507120334 16 292 0.0 0.0 0.00 0.00 0.00 45 1011.2
20260507115345 17 292 0.0 0.0 0.00 0.00 0.00 42 1011.3
20260507114332 17 292 0.0 0.0 0.00 0.00 0.00 44 1011.4
20260507113340 17 292 0.0 0.0 0.00 0.00 0.00 44 1011.3
20260507112328 17 292 0.0 0.0 0.00 0.00 0.00 43 1011.3
20260507111339 17 292 0.0 0.0 0.00 0.00 0.00 42 1011.4
20260507110327 17 292 0.0 0.0 0.00 0.00 0.00 40 1011.4
20260507105335 17 292 0.0 0.0 0.00 0.00 0.00 41 1011.5
20260507104325 17 292 0.0 0.0 0.00 0.00 0.00 40 1011.6
20260507103334 18 292 0.0 0.0 0.00 0.00 0.00 39 1011.7
20260507102342 18 292 0.0 0.0 0.00 0.00 0.00 39 1011.9
20260507101330 18 292 0.0 0.0 0.00 0.00 0.00 37 1011.9
20260507100342 18 292 0.0 0.0 0.00 0.00 0.00 36 1011.9
20260507095351 18 292 0.0 0.0 0.00 0.00 0.00 37 1012.0
20260507094339 19 292 0.0 0.0 0.00 0.00 0.00 35 1012.1
20260507093326 19 292 0.0 0.0 0.00 0.00 0.00 34 1012.1
20260507092337 19 292 0.0 0.0 0.00 0.00 0.00 35 1012.0
20260507091342 20 292 0.0 0.0 0.00 0.00 0.00 33 1012.1
20260507090331 20 292 0.0 0.0 0.00 0.00 0.00 31 1012.1
20260507085339 20 290 0.0 0.0 0.00 0.00 0.00 31 1012.1
20260507084330 20 290 0.0 0.0 0.00 0.00 0.00 31 1012.1
20260507083338 20 340 0.0 0.0 0.00 0.00 0.00 31 1012.1
20260507082327 20 316 0.0 0.0 0.00 0.00 0.00 32 1012.1
20260507081355 20 309 0.0 0.0 0.00 0.00 0.00 31 1012.2
20260507080325 20 309 0.0 0.0 0.00 0.00 0.00 32 1012.2
20260507075333 20 308 0.0 0.0 0.00 0.00 0.00 31 1012.2
20260507074342 20 304 0.0 0.0 0.00 0.00 0.00 32 1012.2
20260507073330 20 306 0.0 0.0 0.00 0.00 0.00 33 1012.3
20260507072343 20 306 0.0 0.0 0.00 0.00 0.00 33 1012.2
20260507071331 20 306 0.0 0.0 0.00 0.00 0.00 33 1012.2
20260507070339 21 306 0.0 0.0 0.00 0.00 0.00 32 1012.2
20260507065347 21 306 0.0 0.0 0.00 0.00 0.00 32 1012.2
20260507064339 21 306 0.0 0.0 0.00 0.00 0.00 31 1012.2
20260507063328 21 306 0.0 0.0 0.00 0.00 0.00 31 1012.2
20260507062335 22 306 0.0 0.0 0.00 0.00 0.00 30 1012.3
20260507061344 22 306 0.0 0.0 0.00 0.00 0.00 29 1012.3
20260507060336 22 306 0.0 0.0 0.00 0.00 0.00 29 1012.2
20260507055343 22 306 0.0 0.0 0.00 0.00 0.00 29 1012.2
20260507054331 23 306 0.0 0.0 0.00 0.00 0.00 28 1012.2
20260507053400 23 306 0.0 0.0 0.00 0.00 0.00 28 1012.2
20260507052331 23 300 0.0 0.0 0.00 0.00 0.00 27 1012.1
20260507051337 23 288 0.0 0.0 0.00 0.00 0.00 26 1012.1
20260507050345 24 288 0.0 0.0 0.00 0.00 0.00 26 1012.1
20260507045353 24 288 0.0 0.0 0.00 0.00 0.00 25 1012.0
20260507044339 24 288 0.0 0.0 0.00 0.00 0.00 24 1012.0
20260507043331 24 288 0.0 0.0 0.00 0.00 0.00 24 1012.0
20260507042338 24 267 0.0 0.0 0.00 0.00 0.00 24 1011.9
20260507041347 25 265 0.0 0.0 0.00 0.00 0.00 23 1011.7
20260507040334 25 274 0.0 0.0 0.00 0.00 0.00 24 1011.6
20260507035344 25 276 0.0 0.0 0.00 0.00 0.00 24 1011.4
20260507034333 25 276 0.0 0.0 0.00 0.00 0.00 22 1011.3
20260507033342 26 286 0.0 0.0 0.00 0.00 0.00 23 1011.2
20260507032329 26 286 0.0 0.0 0.00 0.00 0.00 21 1011.1
20260507031339 26 290 0.0 3.2 0.00 0.00 0.00 21 1010.9
20260507030346 26 280 0.0 6.4 0.00 0.00 0.00 21 1010.8
20260507025332 26 269 0.0 6.4 0.00 0.00 0.00 21 1010.7
20260507024340 26 250 1.6 6.4 0.00 0.00 0.00 21 1010.7
20260507023331 27 227 0.0 4.8 0.00 0.00 0.00 21 1010.5
20260507022340 27 245 0.0 8.0 0.00 0.00 0.00 21 1010.4
20260507021327 27 259 0.0 6.4 0.00 0.00 0.00 20 1010.3
20260507020336 27 268 3.2 9.7 0.00 0.00 0.00 20 1010.3
20260507015329 28 224 1.6 11.3 0.00 0.00 0.00 20 1010.3
20260507014336 28 237 3.2 9.7 0.00 0.00 0.00 20 1010.2
20260507013344 28 248 0.0 16.1 0.00 0.00 0.00 20 1010.1
20260507012332 28 270 3.2 14.5 0.00 0.00 0.00 19 1010.1
20260507011345 29 255 0.0 11.3 0.00 0.00 0.00 19 1010.1
20260507010332 30 211 4.8 11.3 0.00 0.00 0.00 19 1010.1
20260507005339 30 291 3.2 11.3 0.00 0.00 0.00 18 1010.2
20260507004328 29 284 1.6 11.3 0.00 0.00 0.00 19 1010.1
20260507003340 29 275 3.2 11.3 0.00 0.00 0.00 19 1010.1
20260507002328 30 273 8.0 12.9 0.00 0.00 0.00 18 1010.1
20260507001335 30 217 0.0 11.3 0.00 0.00 0.00 18 1010.1
20260507000405 30 257 0.0 14.5 0.00 0.00 0.00 18 1010.1
20260506235352 30 182 8.0 17.7 0.00 0.00 0.00 18 1010.0
20260506234339 30 276 3.2 11.3 0.00 0.00 0.00 18 1010.2
20260506233327 30 88 0.0 11.3 0.00 0.00 0.00 18 1010.2
20260506232353 30 310 3.2 11.3 0.00 0.00 0.00 18 1010.3
20260506231401 30 273 0.0 4.8 0.00 0.00 0.00 18 1010.4
20260506230331 30 144 0.0 11.3 0.00 0.00 0.00 18 1010.6
20260506225359 30 333 8.0 17.7 0.00 0.00 0.00 18 1010.7
20260506224327 30 360 0.0 8.0 0.00 0.00 0.00 18 1010.7
20260506223334 30 256 0.0 8.0 0.00 0.00 0.00 18 1010.8
20260506222343 30 299 3.2 8.0 0.00 0.00 0.00 18 1011.0
20260506221330 29 260 4.8 16.1 0.00 0.00 0.00 19 1011.2
20260506220338 29 213 0.0 12.9 0.00 0.00 0.00 18 1011.2
20260506215345 29 202 1.6 12.9 0.00 0.00 0.00 18 1011.3
20260506214356 29 9 0.0 0.0 0.00 0.00 0.00 19 1011.5
20260506213343 28 218 0.0 0.0 0.00 0.00 0.00 19 1011.8
20260506212332 28 271 3.2 14.5 0.00 0.00 0.00 20 1012.1
20260506211341 28 15 6.4 14.5 0.00 0.00 0.00 19 1012.2
20260506210331 28 268 4.8 8.0 0.00 0.00 0.00 20 1012.4
20260506205340 28 154 9.7 16.1 0.00 0.00 0.00 20 1012.4
20260506204328 27 267 4.8 14.5 0.00 0.00 0.00 20 1012.6
20260506203336 27 263 6.4 11.3 0.00 0.00 0.00 21 1012.7
20260506202348 27 317 4.8 9.7 0.00 0.00 0.00 21 1012.8
20260506201334 27 196 4.8 11.3 0.00 0.00 0.00 21 1012.9
20260506200342 27 227 1.6 9.7 0.00 0.00 0.00 22 1012.9
20260506195330 27 161 8.0 17.7 0.00 0.00 0.00 21 1013.0
20260506194343 26 188 4.8 14.5 0.00 0.00 0.00 22 1013.2
20260506193332 26 79 4.8 12.9 0.00 0.00 0.00 22 1013.3
20260506192339 26 335 8.0 17.7 0.00 0.00 0.00 22 1013.4
20260506191327 26 348 1.6 14.5 0.00 0.00 0.00 23 1013.3
20260506190339 26 186 6.4 16.1 0.00 0.00 0.00 23 1013.5
20260506185406 26 277 3.2 9.7 0.00 0.00 0.00 23 1013.7
20260506184334 26 208 0.0 6.4 0.00 0.00 0.00 23 1013.8
20260506183342 26 293 1.6 14.5 0.00 0.00 0.00 23 1014.1
20260506182333 25 350 1.6 9.7 0.00 0.00 0.00 26 1014.1
20260506181401 25 248 1.6 12.9 0.00 0.00 0.00 25 1014.3
20260506180328 25 22 4.8 11.3 0.00 0.00 0.00 26 1014.3
20260506175336 25 235 1.6 11.3 0.00 0.00 0.00 26 1014.3
20260506174348 24 328 1.6 8.0 0.00 0.00 0.00 27 1014.4
20260506173335 23 327 4.8 9.7 0.00 0.00 0.00 28 1014.4
20260506172342 24 252 8.0 14.5 0.00 0.00 0.00 28 1014.4
20260506171330 23 307 0.0 4.8 0.00 0.00 0.00 28 1014.4
20260506170358 23 319 1.6 11.3 0.00 0.00 0.00 29 1014.4
20260506165328 23 271 1.6 9.7 0.00 0.00 0.00 29 1014.3
20260506164335 23 105 1.6 9.7 0.00 0.00 0.00 29 1014.3
20260506163342 23 279 1.6 11.3 0.00 0.00 0.00 30 1014.3
20260506162330 23 148 4.8 9.7 0.00 0.00 0.00 30 1014.2
20260506161343 23 202 3.2 9.7 0.00 0.00 0.00 30 1014.2
20260506160331 23 253 3.2 8.0 0.00 0.00 0.00 30 1014.2
20260506155340 22 302 3.2 6.4 0.00 0.00 0.00 31 1014.2
20260506154331 22 323 0.0 4.8 0.00 0.00 0.00 32 1014.2
20260506153340 22 32 1.6 8.0 0.00 0.00 0.00 32 1014.2
20260506152329 21 23 1.6 8.0 0.00 0.00 0.00 32 1014.2
20260506151336 21 345 0.0 8.0 0.00 0.00 0.00 34 1014.2
20260506150403 21 326 1.6 4.8 0.00 0.00 0.00 35 1014.3
20260506145333 20 337 1.6 3.2 0.00 0.00 0.00 35 1014.3
20260506144342 20 303 0.0 6.4 0.00 0.00 0.00 36 1014.2
20260506143328 20 355 0.0 0.0 0.00 0.00 0.00 37 1014.2
20260506142336 19 63 0.0 0.0 0.00 0.00 0.00 40 1014.0
20260506141328 18 67 0.0 0.0 0.00 0.00 0.00 42 1013.9